Garrison, ND

3:59 AM CDT on September 20, 2017 (GMT -0500)
Garrison

Weather History for KN60 - February, 2013

Change the Weather History Date:

Saturday, February 2, 2013

  Actual Average Record
Temperature  
Mean Temperature 16 °F -  
Max Temperature 32 °F - 45 °F (2012)
Min Temperature 0 °F - -27 °F (2011)
Degree Days  
Heating Degree Days 49    
Month to date heating degree days 113  
Cooling Degree Days 0    
Moisture  
Dew Point 8 °F    
Average Humidity 86    
Maximum Humidity 92    
Minimum Humidity 79    
Precipitation  
Precipitation 0.17 in - 0.17 in (2013)
Month to date precipitation 0.21  
Year to date precipitation 0.71  
Sea Level Pressure  
Sea Level Pressure 30.13 in    
Wind  
Wind Speed 16 mph (WNW)    
Max Wind Speed 44 mph    
Max Gust Speed 54 mph    
T = Trace of Precipitation, MM = Missing Value Source: NWS Daily Summary

Daily Weather History Graph

Daily Weather History Graph

Search for Another Location

Airport or City:

Trip Planner

Search our weather history database for the weather conditions in past years. The results will help you decide how hot, cold, wet, or windy it might be!

Date:

Astronomy

Feb. 02, 2013 Rise Set
Actual Time 8:10 AM CST 5:48 PM CST
Civil Twilight 7:37 AM CST 6:21 PM CST
Nautical Twilight 7:00 AM CST 6:58 PM CST
Astronomical Twilight 6:24 AM CST 7:34 PM CST
Moon 12:28 AM CST (2/2) 10:49 AM CST (2/2)
Length of Visible Light 10h 44m
Length of Day
9h 38m
Waning Gibbous, 59% of the Moon is Illuminated
Feb 2
Waning Gibbous
Feb 3
Last Quarter
Feb 10
New
Feb 17
First Quarter
Feb 25
Full

Hourly Weather History & Observations

Time (CST) Temp. Windchill Dew Point Humidity Pressure Visibility Wind Dir Wind Speed Gust Speed Precip Events Conditions
12:52 AM 3.0 °F -13.3 °F -2.9 °F 76% 30.20 in - NNW 11.5 mph - N/A   Unknown
1:52 AM 3.0 °F -11.5 °F -2.9 °F 76% 30.20 in - NNW 9.2 mph - N/A   Unknown
2:52 AM 3.0 °F -10.5 °F -2.9 °F 76% 30.19 in - North 8.1 mph - N/A   Unknown
3:52 AM -0.0 °F - -4.0 °F 83% 30.18 in - Calm Calm - N/A   Unknown
4:52 AM 1.9 °F - -2.9 °F 80% 30.17 in - Calm Calm - N/A   Unknown
5:52 AM 3.0 °F - -2.0 °F 80% 30.16 in - Calm Calm - N/A   Unknown
6:52 AM 3.9 °F -5.3 °F -0.0 °F 84% 30.12 in - SSW 4.6 mph - N/A   Unknown
7:52 AM 6.1 °F -5.6 °F 1.9 °F 83% 30.09 in - South 6.9 mph - N/A   Unknown
8:52 AM 9.0 °F -3.2 °F 5.0 °F 84% 30.04 in - SSW 8.1 mph - 0.03 in   Unknown
9:52 AM 12.9 °F 2.6 °F 10.9 °F 92% 30.01 in - SSW 6.9 mph - 0.08 in   Unknown
10:52 AM 21.9 °F 8.2 °F 19.0 °F 89% 29.99 in - West 16.1 mph - 0.03 in   Unknown
11:52 AM 32.0 °F 17.9 °F 28.0 °F 85% 29.97 in - WNW 28.8 mph 39.1 mph 0.02 in   Unknown
12:52 PM 32.0 °F 16.2 °F 28.0 °F 85% 29.99 in - NW 38.0 mph 47.2 mph N/A   Unknown
1:52 PM 25.0 °F 8.1 °F 21.9 °F 88% 30.06 in - NNW 29.9 mph 40.3 mph 0.01 in   Unknown
2:52 PM 19.9 °F -0.6 °F 16.0 °F 85% 30.09 in - NW 38.0 mph 50.6 mph N/A   Unknown
3:52 PM 18.0 °F -2.3 °F 14.0 °F 84% 30.14 in - NW 33.4 mph 43.7 mph N/A   Unknown
4:52 PM 15.1 °F -5.0 °F 10.9 °F 84% 30.18 in - NW 28.8 mph 36.8 mph N/A   Unknown
5:52 PM 12.0 °F -8.1 °F 8.1 °F 84% 30.21 in - NW 25.3 mph 34.5 mph N/A   Unknown
6:52 PM 12.0 °F -6.0 °F 7.0 °F 80% 30.24 in - NW 19.6 mph - 0.01 in   Unknown
7:52 PM 10.9 °F -6.5 °F 6.1 °F 81% 30.25 in - NNW 17.3 mph - N/A   Unknown
8:52 PM 10.9 °F -2.6 °F 7.0 °F 84% 30.22 in - NNW 10.4 mph - N/A   Unknown
9:52 PM 12.9 °F -1.6 °F 8.1 °F 81% 30.20 in - NW 12.7 mph - N/A   Unknown
10:52 PM 15.1 °F 1.1 °F 9.0 °F 77% 30.18 in - WNW 12.7 mph - N/A   Unknown
11:52 PM 17.1 °F 4.3 °F 12.0 °F 81% 30.14 in - WNW 11.5 mph - N/A   Unknown